Location: *
(42.3442°N, 9.2072°E)
Time: 10:52:53
(UTC+00:00)

Meteor 2-10 Rocket - Pass Details

Date: 08 August 2020
Orbit: 734 x 884 km, 81.2° (Epoch: 22 September)

Event Time Altitude Azimuth Distance (km) Brightness Sun altitude
Rises 03:39:57 0° 151° (SSE) 3,181 6.7 -8.0°
Reaches altitude 10° 03:42:41 10° 137° (SE) 2,280 6.1 -7.6°
Maximum altitude 03:46:35 22° 87° (E) 1,627 6.2 -6.9°
Drops below altitude 10° 03:50:35 10° 38° (NE) 2,360 7.3 -6.3°
Sets 03:53:28 0° 24° (NNE) 3,323 7.7 -5.8°
